Погода Старая Русса

Погода Старая Русса : погода сейчас, прогноз погоды и архив. Всё, что Вы хотите узнать о погоде Старая Русса!

Хотите узнать прогноз погоды Старая Русса? Тогда Вам сюда: Погода Старая Русса

Поиск расширенной информации на нашем сайте:

Полезная информация:

Другие новости

Новости СМИ2

Главная страница сайта

Новости сайта

03.07.2017

Напоминаем, что на нашем специализированном сайте Метеоцентр.Азия вы можете получить высокодетализированные автоматические прогнозы погоды по пунктам России, СНГ и мира в авиационном формате (включающие направление и скорость ветра, видимость, явления погоды, количество и форму облачности, нижнюю и верхнюю границу облачности).

Рекомендуем:

Погода Старая Русса - сегодня

Время (UTC), дата Ветер
(°,м/с) 
Видим.   Явления Облачность Т
(°С)
Тd
(°С)
f(%) Тe
(°С)
Pmin
(гПа)
dP
(гПа)
Po
(мм)
O2
(г/м3)
Тmin Tmax R s Состояние
почвы
21 18.05.19 040 (СВ) 20000 м    ясно 
+7.5 +6.1 91 +8  1019.3  0.7  762  298           
00 19.05.19 тихо ()   20000 м    3/0 верхняя 
[Ci sp]
+5.2 +4.2 93 +5  1019.8  0.4  763  301           
03 19.05.19 тихо ()   20000 м    3/0 верхняя 
[Ci sp]
+8 +7.4 96 +8  1020.4  0.7  763  297  +3.7         
06 19.05.19 170 (Ю) 20000 м    8/0 верхняя 
[Ci fib]
+17.8 +5.5 44 +18  1020.5  0.2  763  288  +3.7         
09 19.05.19 140 (ЮВ) 20000 м    8/0 верхняя 
[Ci fib]
+22.5 +5.5 33 +23  1020  -0.5  763  283           
12 19.05.19 050 (СВ) 20000 м    6/0 верхняя 
[Ci fib]
+24.6 +5.8 30 +25  1019.2  -0.8  762  281           
15 19.05.19 010 (С) 20000 м    9/0 верхняя 
[Cs]
+23.6 +6.8 34 +24  1018.6  -0.6  762  281           
18 19.05.19 050 (СВ) 20000 м    9/0 верхняя 
[Ci fib]
+15.2 +10.8 75 +18  1018.4  -0.2  762  289    +24.8       
21 19.05.19 тихо ()   20000 м    3/0 верхняя 
[Ci fib]
+10.5 +9.6 94 +11  1018.8  0.3  762  294           
00 20.05.19 тихо ()   20000 м    3/0 верхняя 
[Ci fib]
+8.6 +7.3 92 +9  1019.1  0.3  762  297           
03 20.05.19 100 (В) 20000 м    6/0 верхняя 
[Ci fib]
+11.7 +8.7 82 +13  1019.8  0.6  763  293  +8.2         
06 20.05.19 140 (ЮВ) 20000 м    6/0 верхняя 
[Ci fib]
+17.3 +9 58 +19  1020  0.3  763  288  +8.2         
09 20.05.19 160 (Ю) 20000 м    3/0 верхняя 
[Ci fib]
+24.7 +9.5 38 +25  1019.5  -0.5  762  280           
12 20.05.19 160 (Ю) 20000 м    6/3 1000 м верхняя 
[Cu hum|Ci fib]
+26.8 +5.5 26 +27  1018.2  -1.2  762  279           
15 20.05.19 240 (ЮЗ) 20000 м    6/3 1000 м верхняя 
[Cu hum|Ci fib]
+27.2 +5.4 25 +27  1016.8  -1.4  761  278           
18 20.05.19 тихо ()   20000 м    5/3 600 м верхняя 
[Cu hum|Ci fib]
+18.7 +11 61 +21  1016.4  -0.5  760  285    +27.8       
21 20.05.19 тихо ()   4000 м  дымка  4/0 верхняя 
[Ci fib]
+11.4 +10.5 94 +13  1016.5  760  292           
00 21.05.19 170 (Ю) 4000 м  дымка  4/0 верхняя 
[Ci fib]
+9.8 +9.2 96 +11  1016.7  0.2  760  294           
03 21.05.19 170 (Ю) 20000 м    6/3 600 м верхняя 
[Cu med, cong|Ci fib]
+12 +8.7 80 +13  1016.6  -0.1  760  292  +8.9         
06 21.05.19 190 (Ю) 20000 м    9/0 средняя, верхняя 
[Ac trans|Ci sp]
+20.2 +10.2 53 +21  1015.8  -0.7  760  283  +8.9         
09 21.05.19 190 (Ю) 20000 м    9/0 средняя, верхняя 
[Ac trans|Ci sp]
+24.3 +10.2 41 +25  1014.7  -1  759  279           
12 21.05.19 230 (ЮЗ) 20000 м    9/1 600 м средняя, верхняя 
[Cu med, cong|Ac trans|Ci sp]
+25.6 +9 35 +26  1014  -0.7  758  278           
15 21.05.19 210 (ЮЗ) 20000 м    9/1 600 м кучево-дожд., средняя, верхняя 
[Cb cap|Ac trans|Ci sp]
+25 +9 36 +25  1012.4  -1.6  757  278           
18 21.05.19 140 (ЮВ) 20000 м    9/0 средняя, верхняя 
[Ac trans|Ci sp]
+19.3 +13.2 68 +27  1011.4  -1.1  756  282    +26.6       
21 21.05.19 010 (С) 20000 м    10/0 средняя 
[Ac und]
+19.2 +12.9 67 +25  1012.2  0.8  757  282           
Время (UTC), дата Ветер
(°,м/с) 
Видим.   Явления Облачность Т
(°С)
Тd
(°С)
f(%) Тe
(°С)
Pmin
(гПа)
dP
(гПа)
Po
(мм)
O2
(г/м3)
Тmin Tmax R s Состояние
почвы

Для получения пояснительной информации подведите курсор к названию столбца.

ПОГОДА Старая Русса - архив

Всё, что Вы хотите узнать о погоде Старая Русса - удобно и подробно!

Выберите нужную дату (начиная с 1 января 2018* года) и нажмите кнопку "Найти".
Будут отображены архивные сводки погоды по пункту Старая Русса, начиная с указанной даты.


Отображать данные в формате CSV (для использования в таблицах Excel)


Внимание! Наш архив погоды предназначен исключительно для личного некоммерческого использования в познавательных целях. Если Вам необходимы официальные справки о состоянии погоды (для производственных, юридических, коммерческих и т.п. целей), обращайтесь в органы Росгидромета.

*Примечание: данная дата относится к архиву по метеостанциям СССР (Россия, СНГ, Балтия).
Архив по метеостанциям Зарубежной Европы и Азии (кроме Китая) хранится 10 дней, по другим регионам земного шара (Китай, Африка, Америка, Австралия, Океания) - 1 день.

Старая Русса - район местоположения метеостанции


Название, широта, долгота, высота метеостанции:
Старая Русса 58°ш. 31.3°д. 25 м над ур. моря [Российская Федерация]

Дополнительная информация

В oтличие oт бoльшинства пoгoдных сайтoв мы публикуем пoдрoбную метеoинфoрмацию в детальнoм прoфессиoнальнoм фoрмате.

Характеристики температуры и влажнoсти вoздуха измеряются на высoте 2 м в тени вдали oт зданий и деревьев.
Скoрoсть ветра измеряется на высoте 10 м (на урoвне рoста челoвека скoрoсть ветра ниже в 1.5-2 раза). Если метеoстанция нахoдится в гoрoде или в лесу, тo скoрoсть ветра занижена на 2-4 м/с пo сравнению с oткрытым местoм. Скoрoсть ветра над акватoриями крупных рек и oзёр, а также на вершинах хoлмoв на 2-5 м/с выше, чем в oбычных услoвиях.
Атмoсфернoе давление в разных тoчках местнoсти мoжет значительнo oтличаться oт давления на метеoстанции, в зависимoсти oт услoвий рельефа (при пoдъёме на 10 м давление пoнижается примернo на 1 мм рт.ст.).